Showing default

FLOCK 4H 19, 66722

Orbit data source: Space-Track

FLOCK 4H 19, 66722 is a payload satellite owned by Planet (US) in SSO that was launched on Fri, 28 Nov 2025 UTC via an FALCON 9 launch vehicle from the Air Force Western Test Range (AFWTR). Payload-class satellites include a variety of spacecraft equipped with specific instruments for various scientific and technological missions. These include communications satellites like Starlink; space stations such as the ISS; scientific satellites like the Hubble; Earth observation satellites from companies like Planet Labs, Umbra, and HawkEye 360; GPS; miniature CubeSats for education and research; and military/defense satellites.

Loading next visibility...
Identifier
66722, 2025-276BJ
Orbit
SSO
Country
Flag of USUS
Related business
Manufacturer
Planet
Mission
Operational Commercial Imaging
Bus & Motor
CUBESAT 3U, Unknown motor
Mass
5.7 kg wet, 5.7 kg dry
Launch date (UTC)
2025-11-28 (9 months ago)
Launch vehicle
FALCON 9
Launch site
Air Force Western Test Range (AFWTR)
Object type
Payload
Rocket body
Debris
Shape & HBR
Box + 2 Pan, 1.0 m
Radar Cross Section
0.072 m², Medium (>0.1 m² and < 1m²)

Expand to show TLE details & history
Last TLE update: 10 hours ago

TLE from 10 hours ago
0 FLOCK 4H 19
1 66722U 25276BJ  26238.56191997  .00006079  00000-0  27173-3 0  9998
2 66722  97.4138 311.3455 0002967  73.3249 286.8313 15.21684871 40436
Epoch: 2026-08-26T13:29Z
TLE epoch observation values (Epoch: 2026-08-26T13:29:09.885Z)
Latitude
0.00003°
Longitude
134.24117°
Altitude
503.26 km
Speed
7.613 km/s
True Right ascension
20h 45m 22s
True Declination
0° 00' 00"
Sunlit
Object was in full shadow at epoch
Visualization orbit readout
Latitude
Unknown
Longitude
Unknown
Altitude
Unknown
Speed
Unknown
Apparent Right ascension
Unknown
Apparent Declination
Unknown
Sunlit
N/A
Visualization observer readout
Local Sidereal Time
15:14:46
Azimuth
Unknown
Elevation
Unknown
Doppler factor
Unknown
Orbital elements
Apogee altitude
499.762 km
Perigee altitude
495.682 km
Semi-major axis
6,875.859 km
Eccentricity
0.0003
Inclination
97.4138°
RAAN
311.3455°
Arg. of periapsis
73.3249°
True anomaly
286.79875°
Mean anomaly
286.8313°
Eccentric anomaly
286.81503°
Mean motion
3.80674 °/min
Orbital period
94.57 mins
BSTAR
0.00027173
Loading maneuver chart data...
Computing Atmospheric mass density...
Loading historical data...
Loading historical data...
Loading historical data...
Loading historical data...
Loading historical data...
Loading historical data...
Loading historical data...

Documentation

Showing up to 5 results
|